{"data":{"norad_id":61046,"intl_designator":"2024-163B","name":"SPACEMOBILE-005","alt_names":[],"object_type":"PAYLOAD","status":"ACTIVE","operator":null,"country":"US","launch_date":"2024-09-12","launch_site_code":"AFETR","launch_vehicle":null,"mission":null,"orbit_class":"UNKNOWN","rcs_meters":null,"size_class":null,"mass_kg":null,"dimensions":null,"purposes":[],"wikipedia_slug":null,"has_3d_model":false,"image_url":null,"decayed_at":null,"tle_current":{"epoch":"2026-09-22T01:53:24.114912Z","epoch_age_seconds":155358,"freshness":"FRESH","line1":"1 61046U 24163B   26265.07875133  .00003539  00000+0  17511-3 0  9995","line2":"2 61046  52.9715 223.9553 0009809  48.7853 311.3985 15.20375726112505","mean_motion":15.20375726,"eccentricity":0.0009809,"inclination_deg":52.9715,"raan_deg":223.9553,"arg_perigee_deg":48.7853,"mean_anomaly_deg":311.3985,"bstar":0.00017511,"rev_number":11250,"period_min":94.713430066957,"perigee_km":497.95504109467,"apogee_km":511.45780332035,"semimajor_km":6882.8434222075,"source":"CELESTRAK","updated_at":"2026-09-23T09:00:20.801906Z"}}}